Time,TemperatureF,DewpointF,PressureIn,WindDirection,WindDirectionDegrees,WindSpeedMPH,WindSpeedGustMPH,Humidity,HourlyPrecipIn,Conditions,Clouds,dailyrainin,SoftwareType,DateUTC
2013-03-16 00:00:00,43.2,26.3,29.91,WNW,293,0.0,0.2,51,0.00,,,0.00,WUHU216HW,2013-03-16 04:00:00,
2013-03-16 00:05:00,43.0,26.2,29.91,WSW,248,0.9,0.9,51,0.00,,,0.00,WUHU216HW,2013-03-16 04:05:00,
2013-03-16 00:10:00,42.8,26.0,29.91,WSW,248,0.0,0.9,51,0.00,,,0.00,WUHU216HW,2013-03-16 04:10:00,
2013-03-16 00:15:00,42.8,26.5,29.91,WSW,248,0.0,0.7,52,0.00,,,0.00,WUHU216HW,2013-03-16 04:15:00,
2013-03-16 00:20:00,42.8,26.5,29.91,WSW,248,0.0,0.4,52,0.00,,,0.00,WUHU216HW,2013-03-16 04:20:00,
2013-03-16 00:25:00,42.8,26.5,29.91,WSW,248,0.0,0.4,52,0.00,,,0.00,WUHU216HW,2013-03-16 04:25:00,
2013-03-16 00:30:00,42.7,26.3,29.91,WSW,248,0.0,0.4,52,0.00,,,0.00,WUHU216HW,2013-03-16 04:30:00,
2013-03-16 00:35:00,42.7,26.6,29.91,WSW,248,0.0,0.4,53,0.00,,,0.00,WUHU216HW,2013-03-16 04:35:00,
2013-03-16 00:40:00,42.5,26.6,29.91,SW,225,0.4,1.1,53,0.00,,,0.00,WUHU216HW,2013-03-16 04:40:00,
2013-03-16 00:45:00,42.3,25.9,29.91,SW,225,0.0,1.1,52,0.00,,,0.00,WUHU216HW,2013-03-16 04:45:00,
2013-03-16 00:50:00,42.1,26.2,29.91,SW,225,0.0,0.0,53,0.00,,,0.00,WUHU216HW,2013-03-16 04:50:00,
2013-03-16 00:55:00,42.1,26.2,29.91,SW,225,0.0,0.0,53,0.00,,,0.00,WUHU216HW,2013-03-16 04:55:00,
2013-03-16 01:00:00,41.9,26.0,29.91,WSW,248,0.2,0.7,53,0.00,,,0.00,WUHU216HW,2013-03-16 05:00:00,
2013-03-16 01:05:00,41.9,26.0,29.91,WSW,248,0.2,0.7,53,0.00,,,0.00,WUHU216HW,2013-03-16 05:05:00,
2013-03-16 01:10:00,41.8,26.3,29.91,WSW,248,0.0,0.2,54,0.00,,,0.00,WUHU216HW,2013-03-16 05:10:00,
2013-03-16 01:15:00,41.4,25.9,29.91,WSW,248,0.0,0.0,54,0.00,,,0.00,WUHU216HW,2013-03-16 05:15:00,
2013-03-16 01:20:00,41.4,26.4,29.91,WSW,248,0.0,0.0,55,0.00,,,0.00,WUHU216HW,2013-03-16 05:20:00,
2013-03-16 01:25:00,41.2,26.2,29.91,WSW,248,0.0,0.0,55,0.00,,,0.00,WUHU216HW,2013-03-16 05:25:00,
2013-03-16 01:30:00,41.0,26.0,29.92,WSW,248,0.0,0.0,55,0.00,,,0.00,WUHU216HW,2013-03-16 05:30:00,
2013-03-16 01:35:00,41.0,26.5,29.92,WSW,248,0.0,0.0,56,0.00,,,0.00,WUHU216HW,2013-03-16 05:35:00,
2013-03-16 01:40:00,41.0,26.5,29.91,WSW,248,0.0,0.0,56,0.00,,,0.00,WUHU216HW,2013-03-16 05:40:00,
2013-03-16 01:45:00,40.9,26.7,29.91,WSW,248,0.0,0.0,57,0.00,,,0.00,WUHU216HW,2013-03-16 05:45:00,
2013-03-16 01:50:00,40.9,26.7,29.91,WSW,248,0.0,0.0,57,0.00,,,0.00,WUHU216HW,2013-03-16 05:50:00,
2013-03-16 01:55:00,40.7,26.6,29.92,WSW,248,0.7,1.1,57,0.00,,,0.00,WUHU216HW,2013-03-16 05:55:00,
2013-03-16 02:00:00,40.7,27.0,29.92,SW,225,0.4,1.1,58,0.00,,,0.00,WUHU216HW,2013-03-16 06:00:00,
2013-03-16 02:05:00,40.9,27.2,29.92,SW,225,0.9,0.9,58,0.00,,,0.00,WUHU216HW,2013-03-16 06:05:00,
2013-03-16 02:10:00,40.9,27.2,29.92,SW,225,0.4,0.9,58,0.00,,,0.00,WUHU216HW,2013-03-16 06:10:00,
2013-03-16 02:15:00,41.0,27.4,29.92,SW,225,0.0,1.3,58,0.00,,,0.00,WUHU216HW,2013-03-16 06:15:00,
2013-03-16 02:20:00,41.0,27.4,29.92,SW,225,0.0,1.3,58,0.00,,,0.00,WUHU216HW,2013-03-16 06:20:00,
2013-03-16 02:25:00,41.0,27.4,29.92,NW,315,0.7,0.7,58,0.00,,,0.00,WUHU216HW,2013-03-16 06:25:00,
2013-03-16 02:30:00,40.9,27.6,29.92,NNE,23,0.9,2.0,59,0.00,,,0.00,WUHU216HW,2013-03-16 06:30:00,
2013-03-16 02:35:00,40.9,27.6,29.92,North,0,0.7,2.0,59,0.00,,,0.00,WUHU216HW,2013-03-16 06:35:00,
2013-03-16 02:40:00,40.9,28.1,29.92,NNE,23,0.4,1.1,60,0.00,,,0.00,WUHU216HW,2013-03-16 06:40:00,
2013-03-16 02:45:00,41.0,28.3,29.92,NE,45,0.0,0.9,60,0.00,,,0.00,WUHU216HW,2013-03-16 06:45:00,
2013-03-16 02:50:00,41.0,28.3,29.92,NE,45,0.0,0.4,60,0.00,,,0.00,WUHU216HW,2013-03-16 06:50:00,
2013-03-16 02:55:00,41.0,28.6,29.92,NE,45,0.0,0.4,61,0.00,,,0.00,WUHU216HW,2013-03-16 06:55:00,
2013-03-16 03:00:00,41.0,28.6,29.93,NE,45,0.0,0.4,61,0.00,,,0.00,WUHU216HW,2013-03-16 07:00:00,
2013-03-16 03:05:00,41.0,28.6,29.93,NE,45,0.0,0.4,61,0.00,,,0.00,WUHU216HW,2013-03-16 07:05:00,
2013-03-16 03:10:00,41.0,29.0,29.93,NE,45,0.0,0.4,62,0.00,,,0.00,WUHU216HW,2013-03-16 07:10:00,
2013-03-16 03:15:00,40.9,28.8,29.93,North,0,0.7,0.7,62,0.00,,,0.00,WUHU216HW,2013-03-16 07:15:00,
2013-03-16 03:20:00,40.7,28.6,29.92,North,0,0.9,0.9,62,0.00,,,0.00,WUHU216HW,2013-03-16 07:20:00,
2013-03-16 03:25:00,40.7,29.1,29.92,North,0,0.4,1.1,63,0.00,,,0.00,WUHU216HW,2013-03-16 07:25:00,
2013-03-16 03:30:00,40.5,28.9,29.92,North,0,0.0,1.1,63,0.00,,,0.00,WUHU216HW,2013-03-16 07:30:00,
2013-03-16 03:35:00,40.5,28.9,29.93,North,0,0.0,0.2,63,0.00,,,0.00,WUHU216HW,2013-03-16 07:35:00,
2013-03-16 03:40:00,40.3,28.7,29.93,NNE,23,0.4,0.4,63,0.00,,,0.00,WUHU216HW,2013-03-16 07:40:00,
2013-03-16 03:45:00,40.3,28.7,29.93,North,0,0.4,0.9,63,0.00,,,0.00,WUHU216HW,2013-03-16 07:45:00,
2013-03-16 03:50:00,40.1,28.9,29.93,NE,45,0.2,0.9,64,0.00,,,0.00,WUHU216HW,2013-03-16 07:50:00,
2013-03-16 03:55:00,40.0,28.7,29.93,North,0,2.2,2.2,64,0.00,,,0.00,WUHU216HW,2013-03-16 07:55:00,
2013-03-16 04:00:00,40.0,28.7,29.94,NNW,338,1.1,2.2,64,0.00,,,0.00,WUHU216HW,2013-03-16 08:00:00,
2013-03-16 04:05:00,40.0,28.7,29.94,North,0,2.0,2.0,64,0.00,,,0.00,WUHU216HW,2013-03-16 08:05:00,
2013-03-16 04:10:00,39.8,28.5,29.94,NNW,338,1.3,2.2,64,0.00,,,0.00,WUHU216HW,2013-03-16 08:10:00,
2013-03-16 04:15:00,39.8,28.5,29.94,NNW,338,0.0,2.2,64,0.00,,,0.00,WUHU216HW,2013-03-16 08:15:00,
2013-03-16 04:20:00,39.6,28.4,29.94,NNW,338,0.0,2.0,64,0.00,,,0.00,WUHU216HW,2013-03-16 08:20:00,
2013-03-16 04:25:00,39.6,28.4,29.94,NNW,338,0.0,0.7,64,0.00,,,0.00,WUHU216HW,2013-03-16 08:25:00,
2013-03-16 04:30:00,39.4,28.2,29.94,NNW,338,0.4,0.4,64,0.00,,,0.00,WUHU216HW,2013-03-16 08:30:00,
2013-03-16 04:35:00,39.2,28.0,29.94,NNW,338,0.0,0.9,64,0.00,,,0.00,WUHU216HW,2013-03-16 08:35:00,
2013-03-16 04:40:00,39.1,27.8,29.94,NNW,338,0.0,0.9,64,0.00,,,0.00,WUHU216HW,2013-03-16 08:40:00,
2013-03-16 04:45:00,38.9,27.6,29.94,NNW,338,0.0,0.4,64,0.00,,,0.00,WUHU216HW,2013-03-16 08:45:00,
2013-03-16 04:50:00,38.7,27.5,29.94,NNE,23,1.1,1.1,64,0.00,,,0.00,WUHU216HW,2013-03-16 08:50:00,
2013-03-16 04:55:00,38.7,27.5,29.94,NNE,23,0.7,1.1,64,0.00,,,0.00,WUHU216HW,2013-03-16 08:55:00,
2013-03-16 05:00:00,38.7,27.9,29.94,North,0,1.1,1.1,65,0.00,,,0.00,WUHU216HW,2013-03-16 09:00:00,
2013-03-16 05:05:00,38.7,27.9,29.94,North,0,0.4,1.1,65,0.00,,,0.00,WUHU216HW,2013-03-16 09:05:00,
2013-03-16 05:10:00,38.5,27.7,29.94,NNW,338,1.6,1.6,65,0.00,,,0.00,WUHU216HW,2013-03-16 09:10:00,
2013-03-16 05:15:00,38.5,27.7,29.94,North,0,0.2,1.6,65,0.00,,,0.00,WUHU216HW,2013-03-16 09:15:00,
2013-03-16 05:20:00,38.7,27.9,29.94,North,0,0.4,1.8,65,0.00,,,0.00,WUHU216HW,2013-03-16 09:20:00,
2013-03-16 05:25:00,38.7,27.9,29.95,NNE,23,0.0,1.8,65,0.00,,,0.00,WUHU216HW,2013-03-16 09:25:00,
2013-03-16 05:30:00,38.7,27.5,29.95,NNW,338,0.4,1.1,64,0.00,,,0.00,WUHU216HW,2013-03-16 09:30:00,
2013-03-16 05:35:00,38.7,27.5,29.95,North,0,0.4,1.1,64,0.00,,,0.00,WUHU216HW,2013-03-16 09:35:00,
2013-03-16 05:40:00,38.7,27.5,29.95,NNW,338,0.9,1.8,64,0.00,,,0.00,WUHU216HW,2013-03-16 09:40:00,
2013-03-16 05:45:00,38.5,26.9,29.95,NNW,338,2.0,2.0,63,0.00,,,0.00,WUHU216HW,2013-03-16 09:45:00,
2013-03-16 05:50:00,38.5,26.9,29.95,North,0,0.2,3.4,63,0.00,,,0.00,WUHU216HW,2013-03-16 09:50:00,
2013-03-16 05:55:00,38.5,26.9,29.95,North,0,0.4,3.4,63,0.00,,,0.00,WUHU216HW,2013-03-16 09:55:00,
2013-03-16 06:00:00,38.3,26.8,29.96,North,0,0.4,1.3,63,0.00,,,0.00,WUHU216HW,2013-03-16 10:00:00,
2013-03-16 06:05:00,38.3,26.8,29.96,North,0,0.4,1.1,63,0.00,,,0.00,WUHU216HW,2013-03-16 10:05:00,
2013-03-16 06:10:00,38.3,26.8,29.96,North,0,1.3,1.3,63,0.00,,,0.00,WUHU216HW,2013-03-16 10:10:00,
2013-03-16 06:15:00,38.2,26.7,29.96,North,0,1.8,1.8,63,0.00,,,0.00,WUHU216HW,2013-03-16 10:15:00,
2013-03-16 06:20:00,38.2,26.7,29.96,NNW,338,1.1,1.8,63,0.00,,,0.00,WUHU216HW,2013-03-16 10:20:00,
2013-03-16 06:25:00,38.2,26.7,29.96,NNW,338,1.1,1.6,63,0.00,,,0.00,WUHU216HW,2013-03-16 10:25:00,
2013-03-16 06:47:00,37.6,25.4,29.95,North,0,2.2,2.2,61,0.00,,,0.00,WUHU216HW,2013-03-16 10:47:00,
2013-03-16 06:52:00,37.6,25.0,29.96,NNW,338,1.6,2.2,60,0.00,,,0.00,WUHU216HW,2013-03-16 10:52:00,
2013-03-16 06:57:00,37.6,25.0,29.95,NNW,338,1.1,1.6,60,0.00,,,0.00,WUHU216HW,2013-03-16 10:57:00,
2013-03-16 07:02:00,37.4,24.8,29.96,North,0,1.8,2.5,60,0.00,,,0.00,WUHU216HW,2013-03-16 11:02:00,
2013-03-16 07:07:00,37.6,25.0,29.96,NNW,338,0.4,2.5,60,0.00,,,0.00,WUHU216HW,2013-03-16 11:07:00,
2013-03-16 07:12:00,37.6,25.0,29.96,NE,45,0.0,1.1,60,0.00,,,0.00,WUHU216HW,2013-03-16 11:12:00,
2013-03-16 07:17:00,37.8,25.2,29.96,NE,45,0.4,1.1,60,0.00,,,0.00,WUHU216HW,2013-03-16 11:17:00,
2013-03-16 07:22:00,37.8,25.2,29.96,North,0,1.6,1.6,60,0.00,,,0.00,WUHU216HW,2013-03-16 11:22:00,
2013-03-16 07:27:00,37.8,25.2,29.96,NNE,23,1.3,1.6,60,0.00,,,0.00,WUHU216HW,2013-03-16 11:27:00,
2013-03-16 07:32:00,37.8,25.2,29.96,North,0,0.4,1.3,60,0.00,,,0.00,WUHU216HW,2013-03-16 11:32:00,
2013-03-16 07:37:00,37.8,25.2,29.96,North,0,0.0,0.7,60,0.00,,,0.00,WUHU216HW,2013-03-16 11:37:00,
2013-03-16 07:42:00,38.0,25.3,29.96,North,0,0.2,0.4,60,0.00,,,0.00,WUHU216HW,2013-03-16 11:42:00,
2013-03-16 07:47:00,38.0,25.3,29.96,NNW,338,1.1,1.1,60,0.00,,,0.00,WUHU216HW,2013-03-16 11:47:00,
2013-03-16 07:56:00,38.0,25.3,29.96,NNW,338,1.1,1.1,60,0.00,,,0.00,WUHU216HW,2013-03-16 11:56:00,
2013-03-16 08:01:00,38.3,25.2,29.97,North,0,0.0,0.7,59,0.00,,,0.00,WUHU216HW,2013-03-16 12:01:00,
2013-03-16 08:06:00,38.3,25.2,29.97,North,0,0.0,0.7,59,0.00,,,0.00,WUHU216HW,2013-03-16 12:06:00,
2013-03-16 08:11:00,38.5,25.4,29.97,NNW,338,0.4,1.1,59,0.00,,,0.00,WUHU216HW,2013-03-16 12:11:00,
2013-03-16 08:16:00,38.5,25.4,29.97,NNW,338,0.4,1.6,59,0.00,,,0.00,WUHU216HW,2013-03-16 12:16:00,
2013-03-16 08:21:00,38.5,25.4,29.97,NNW,338,2.7,2.7,59,0.00,,,0.00,WUHU216HW,2013-03-16 12:21:00,
2013-03-16 08:26:00,38.5,25.4,29.97,North,0,1.1,2.7,59,0.00,,,0.00,WUHU216HW,2013-03-16 12:26:00,
2013-03-16 08:32:00,38.5,25.4,29.97,NNE,23,1.3,2.2,59,0.00,,,0.00,WUHU216HW,2013-03-16 12:32:00,
2013-03-16 08:37:00,38.7,25.6,29.97,North,0,2.5,2.5,59,0.00,,,0.00,WUHU216HW,2013-03-16 12:37:00,
2013-03-16 08:42:00,38.9,26.1,29.97,North,0,1.1,2.5,60,0.00,,,0.00,WUHU216HW,2013-03-16 12:42:00,
2013-03-16 08:53:00,39.2,26.5,29.97,NNE,23,1.6,3.6,60,0.00,,,0.00,WUHU216HW,2013-03-16 12:53:00,
2013-03-16 08:58:00,39.2,26.5,29.97,North,0,4.3,5.8,60,0.00,,,0.00,WUHU216HW,2013-03-16 12:58:00,
2013-03-16 09:03:00,39.4,26.2,29.97,ENE,68,1.8,5.8,59,0.00,,,0.00,WUHU216HW,2013-03-16 13:03:00,
2013-03-16 09:08:00,39.6,26.4,29.97,North,0,1.1,3.8,59,0.00,,,0.00,WUHU216HW,2013-03-16 13:08:00,
2013-03-16 09:13:00,40.0,26.7,29.97,NNE,23,2.7,5.6,59,0.00,,,0.00,WUHU216HW,2013-03-16 13:13:00,
2013-03-16 09:27:00,40.5,26.8,29.96,ESE,113,1.8,1.8,58,0.00,,,0.00,WUHU216HW,2013-03-16 13:27:00,
2013-03-16 09:31:00,40.7,27.0,29.97,North,0,1.8,1.8,58,0.00,,,0.00,WUHU216HW,2013-03-16 13:31:00,
2013-03-16 09:32:00,40.7,27.0,29.97,North,0,1.8,1.8,58,0.00,,,0.00,WUHU216HW,2013-03-16 13:32:00,
2013-03-16 09:37:00,40.7,27.0,29.97,North,0,1.8,1.8,58,0.00,,,0.00,WUHU216HW,2013-03-16 13:37:00,
2013-03-16 10:00:00,41.6,27.0,29.97,NE,45,3.4,3.4,56,0.00,,,0.00,WUHU216HW,2013-03-16 14:00:00,
2013-03-16 10:05:00,41.4,26.4,29.97,NNE,23,2.2,3.4,55,0.00,,,0.00,WUHU216HW,2013-03-16 14:05:00,
2013-03-16 10:10:00,41.2,26.7,29.97,North,0,1.6,3.1,56,0.00,,,0.00,WUHU216HW,2013-03-16 14:10:00,
2013-03-16 10:15:00,41.2,26.2,29.97,ENE,68,2.5,2.5,55,0.00,,,0.00,WUHU216HW,2013-03-16 14:15:00,
2013-03-16 10:20:00,41.4,26.4,29.97,NE,45,2.0,4.7,55,0.00,,,0.00,WUHU216HW,2013-03-16 14:20:00,
2013-03-16 10:25:00,41.4,26.4,29.97,NNE,23,1.8,4.7,55,0.00,,,0.00,WUHU216HW,2013-03-16 14:25:00,
2013-03-16 10:30:00,41.4,26.4,29.97,ENE,68,2.5,3.4,55,0.00,,,0.00,WUHU216HW,2013-03-16 14:30:00,
2013-03-16 10:35:00,41.6,26.6,29.97,ENE,68,2.2,3.4,55,0.00,,,0.00,WUHU216HW,2013-03-16 14:35:00,
2013-03-16 10:40:00,41.6,26.6,29.97,NNE,23,1.6,3.4,55,0.00,,,0.00,WUHU216HW,2013-03-16 14:40:00,
2013-03-16 10:45:00,41.8,26.3,29.97,NE,45,1.8,3.4,54,0.00,,,0.00,WUHU216HW,2013-03-16 14:45:00,
2013-03-16 10:50:00,42.1,26.2,29.97,NE,45,0.7,4.5,53,0.00,,,0.00,WUHU216HW,2013-03-16 14:50:00,
2013-03-16 10:55:00,42.1,26.7,29.97,NNE,23,2.9,4.5,54,0.00,,,0.00,WUHU216HW,2013-03-16 14:55:00,
2013-03-16 11:00:00,42.1,26.7,29.98,NNE,23,1.3,3.4,54,0.00,,,0.00,WUHU216HW,2013-03-16 15:00:00,
2013-03-16 11:05:00,42.1,26.7,29.98,North,0,1.3,2.5,54,0.00,,,0.00,WUHU216HW,2013-03-16 15:05:00,
2013-03-16 11:10:00,42.1,26.7,29.98,East,90,0.2,2.5,54,0.00,,,0.00,WUHU216HW,2013-03-16 15:10:00,
2013-03-16 11:15:00,42.1,26.7,29.98,ENE,68,0.4,4.9,54,0.00,,,0.00,WUHU216HW,2013-03-16 15:15:00,
2013-03-16 11:20:00,42.1,26.7,29.97,ENE,68,2.2,4.9,54,0.00,,,0.00,WUHU216HW,2013-03-16 15:20:00,
2013-03-16 11:25:00,42.3,26.7,29.97,North,0,3.4,3.4,54,0.00,,,0.00,WUHU216HW,2013-03-16 15:25:00,
2013-03-16 11:30:00,42.5,26.9,29.97,ENE,68,5.4,5.4,54,0.00,,,0.00,WUHU216HW,2013-03-16 15:30:00,
2013-03-16 11:35:00,42.7,27.1,29.98,NE,45,0.2,6.9,54,0.00,,,0.00,WUHU216HW,2013-03-16 15:35:00,
2013-03-16 11:40:00,42.8,27.3,29.98,ESE,113,2.2,6.9,54,0.00,,,0.00,WUHU216HW,2013-03-16 15:40:00,
2013-03-16 11:45:00,42.7,27.1,29.98,NNW,338,2.7,6.3,54,0.00,,,0.00,WUHU216HW,2013-03-16 15:45:00,
2013-03-16 11:50:00,42.1,26.7,29.98,ENE,68,4.3,6.3,54,0.00,,,0.00,WUHU216HW,2013-03-16 15:50:00,
2013-03-16 11:55:00,42.1,27.0,29.98,NNE,23,2.2,4.3,55,0.00,,,0.00,WUHU216HW,2013-03-16 15:55:00,
2013-03-16 12:00:00,42.1,27.0,29.98,North,0,1.1,2.5,55,0.00,,,0.00,WUHU216HW,2013-03-16 16:00:00,
2013-03-16 12:05:00,42.1,26.7,29.98,East,90,2.2,2.2,54,0.00,,,0.00,WUHU216HW,2013-03-16 16:05:00,
2013-03-16 12:10:00,41.9,26.9,29.98,NNE,23,1.1,3.6,55,0.00,,,0.00,WUHU216HW,2013-03-16 16:10:00,
2013-03-16 12:15:00,41.9,26.9,29.98,ENE,68,0.7,5.8,55,0.00,,,0.00,WUHU216HW,2013-03-16 16:15:00,
2013-03-16 12:20:00,42.1,27.5,29.97,NE,45,0.4,5.8,56,0.00,,,0.00,WUHU216HW,2013-03-16 16:20:00,
2013-03-16 12:25:00,42.1,27.5,29.97,NNE,23,2.5,5.1,56,0.00,,,0.00,WUHU216HW,2013-03-16 16:25:00,
2013-03-16 12:30:00,41.8,27.2,29.97,East,90,0.4,2.9,56,0.00,,,0.00,WUHU216HW,2013-03-16 16:30:00,
2013-03-16 12:35:00,41.8,27.5,29.97,ESE,113,1.1,2.9,57,0.00,,,0.00,WUHU216HW,2013-03-16 16:35:00,
2013-03-16 12:40:00,41.9,27.7,29.97,East,90,0.4,2.9,57,0.00,,,0.00,WUHU216HW,2013-03-16 16:40:00,
2013-03-16 12:45:00,41.8,28.0,29.96,ENE,68,0.2,3.1,58,0.00,,,0.00,WUHU216HW,2013-03-16 16:45:00,
2013-03-16 12:50:00,41.4,28.2,29.96,NE,45,2.7,4.9,59,0.00,,,0.00,WUHU216HW,2013-03-16 16:50:00,
2013-03-16 12:55:00,41.2,28.5,29.96,NNE,23,1.1,4.9,60,0.00,,,0.00,WUHU216HW,2013-03-16 16:55:00,
2013-03-16 13:00:00,41.0,29.0,29.96,ENE,68,4.5,4.5,62,0.00,,,0.00,WUHU216HW,2013-03-16 17:00:00,
2013-03-16 13:05:00,40.7,28.6,29.96,SE,135,0.7,4.5,62,0.00,,,0.00,WUHU216HW,2013-03-16 17:05:00,
2013-03-16 13:10:00,40.3,28.7,29.95,ESE,113,2.5,4.5,63,0.00,,,0.00,WUHU216HW,2013-03-16 17:10:00,
2013-03-16 13:15:00,40.0,28.7,29.95,ESE,113,0.4,3.1,64,0.00,,,0.00,WUHU216HW,2013-03-16 17:15:00,
2013-03-16 13:20:00,39.6,28.4,29.95,ENE,68,1.1,3.1,64,0.00,,,0.00,WUHU216HW,2013-03-16 17:20:00,
2013-03-16 13:25:00,39.2,28.4,29.95,NE,45,1.8,1.8,65,0.00,,,0.00,WUHU216HW,2013-03-16 17:25:00,
2013-03-16 13:30:00,39.1,28.5,29.95,NE,45,2.5,2.5,66,0.00,,,0.00,WUHU216HW,2013-03-16 17:30:00,
2013-03-16 13:35:00,38.9,28.5,29.95,ENE,68,1.1,2.5,66,0.00,,,0.00,WUHU216HW,2013-03-16 17:35:00,
2013-03-16 13:40:00,38.9,28.8,29.95,ENE,68,1.6,1.8,67,0.00,,,0.00,WUHU216HW,2013-03-16 17:40:00,
2013-03-16 13:45:00,38.7,28.6,29.95,ENE,68,0.7,4.0,67,0.00,,,0.00,WUHU216HW,2013-03-16 17:45:00,
2013-03-16 13:50:00,38.7,28.6,29.95,ENE,68,0.4,4.0,67,0.00,,,0.00,WUHU216HW,2013-03-16 17:50:00,
2013-03-16 13:55:00,38.5,28.8,29.95,NE,45,3.1,3.1,68,0.00,,,0.00,WUHU216HW,2013-03-16 17:55:00,
2013-03-16 14:00:00,38.3,28.7,29.94,ENE,68,1.3,4.0,68,0.00,,,0.00,WUHU216HW,2013-03-16 18:00:00,
2013-03-16 14:05:00,38.3,29.1,29.94,ENE,68,0.4,4.0,69,0.00,,,0.00,WUHU216HW,2013-03-16 18:05:00,
2013-03-16 14:10:00,38.2,28.9,29.93,East,90,2.5,2.5,69,0.00,,,0.00,WUHU216HW,2013-03-16 18:10:00,
2013-03-16 14:15:00,38.3,29.1,29.92,NE,45,3.4,4.0,69,0.00,,,0.00,WUHU216HW,2013-03-16 18:15:00,
2013-03-16 14:20:00,38.3,29.4,29.92,ESE,113,0.9,4.0,70,0.00,,,0.00,WUHU216HW,2013-03-16 18:20:00,
2013-03-16 14:25:00,38.3,29.4,29.93,NE,45,4.9,4.9,70,0.00,,,0.00,WUHU216HW,2013-03-16 18:25:00,
2013-03-16 14:30:00,38.2,29.6,29.93,NNE,23,0.4,4.9,71,0.00,,,0.00,WUHU216HW,2013-03-16 18:30:00,
2013-03-16 14:35:00,38.0,29.4,29.92,SE,135,1.8,5.6,71,0.00,,,0.00,WUHU216HW,2013-03-16 18:35:00,
2013-03-16 14:40:00,38.0,29.4,29.92,ENE,68,4.9,5.8,71,0.00,,,0.00,WUHU216HW,2013-03-16 18:40:00,
2013-03-16 14:45:00,37.8,29.6,29.92,ENE,68,3.8,5.8,72,0.00,,,0.00,WUHU216HW,2013-03-16 18:45:00,
2013-03-16 14:50:00,37.8,29.6,29.92,ENE,68,4.0,4.9,72,0.00,,,0.00,WUHU216HW,2013-03-16 18:50:00,
2013-03-16 14:55:00,37.6,29.4,29.94,NE,45,1.8,5.1,72,0.00,,,0.00,WUHU216HW,2013-03-16 18:55:00,
2013-03-16 15:00:00,37.6,29.8,29.94,North,0,2.0,5.1,73,0.00,,,0.00,WUHU216HW,2013-03-16 19:00:00,
2013-03-16 15:05:00,37.4,29.6,29.94,NNE,23,3.1,6.3,73,0.00,,,0.00,WUHU216HW,2013-03-16 19:05:00,
2013-03-16 15:10:00,37.3,29.7,29.93,NE,45,3.1,6.3,74,0.00,,,0.00,WUHU216HW,2013-03-16 19:10:00,
2013-03-16 15:15:00,37.3,29.7,29.93,NNE,23,3.4,3.4,74,0.00,,,0.00,WUHU216HW,2013-03-16 19:15:00,
2013-03-16 15:20:00,37.1,29.5,29.93,NE,45,3.4,4.7,74,0.00,,,0.00,WUHU216HW,2013-03-16 19:20:00,
2013-03-16 15:25:00,36.9,29.3,29.93,NNE,23,3.8,5.8,74,0.00,,,0.00,WUHU216HW,2013-03-16 19:25:00,
2013-03-16 15:30:00,36.9,29.7,29.92,ENE,68,0.4,5.8,75,0.00,,,0.00,WUHU216HW,2013-03-16 19:30:00,
2013-03-16 15:35:00,36.7,29.5,29.92,ENE,68,0.4,5.1,75,0.00,,,0.00,WUHU216HW,2013-03-16 19:35:00,
2013-03-16 15:40:00,36.5,29.3,29.91,NE,45,0.4,5.1,75,0.00,,,0.00,WUHU216HW,2013-03-16 19:40:00,
2013-03-16 15:45:00,36.4,29.2,29.91,NNE,23,1.8,4.3,75,0.00,,,0.00,WUHU216HW,2013-03-16 19:45:00,
2013-03-16 15:50:00,36.2,29.0,29.90,NE,45,1.8,4.0,75,0.00,,,0.00,WUHU216HW,2013-03-16 19:50:00,
2013-03-16 15:55:00,36.0,29.2,29.90,NE,45,0.9,4.0,76,0.00,,,0.00,WUHU216HW,2013-03-16 19:55:00,
2013-03-16 16:00:00,36.0,29.2,29.90,East,90,0.4,1.8,76,0.00,,,0.00,WUHU216HW,2013-03-16 20:00:00,
2013-03-16 16:05:00,36.0,29.2,29.91,NE,45,1.6,3.1,76,0.00,,,0.00,WUHU216HW,2013-03-16 20:05:00,
2013-03-16 16:10:00,35.8,29.0,29.91,ENE,68,3.6,3.6,76,0.00,,,0.00,WUHU216HW,2013-03-16 20:10:00,
2013-03-16 16:15:00,35.6,29.1,29.91,NNE,23,4.0,4.0,77,0.00,,,0.00,WUHU216HW,2013-03-16 20:15:00,
2013-03-16 16:20:00,35.6,29.4,29.92,NNE,23,4.9,6.9,78,0.00,,,0.00,WUHU216HW,2013-03-16 20:20:00,
2013-03-16 16:25:00,35.6,29.4,29.92,NE,45,0.4,6.9,78,0.00,,,0.00,WUHU216HW,2013-03-16 20:25:00,
2013-03-16 16:30:00,35.5,29.3,29.92,ENE,68,2.2,6.3,78,0.00,,,0.00,WUHU216HW,2013-03-16 20:30:00,
2013-03-16 16:35:00,35.6,29.4,29.91,East,90,0.7,4.9,78,0.00,,,0.00,WUHU216HW,2013-03-16 20:35:00,
2013-03-16 16:40:00,35.5,29.3,29.91,ENE,68,3.8,4.9,78,0.00,,,0.00,WUHU216HW,2013-03-16 20:40:00,
2013-03-16 16:45:00,35.3,29.3,29.91,NE,45,0.9,4.0,79,0.00,,,0.00,WUHU216HW,2013-03-16 20:45:00,
2013-03-16 16:50:00,35.3,29.3,29.91,North,0,1.1,3.8,79,0.00,,,0.00,WUHU216HW,2013-03-16 20:50:00,
2013-03-16 16:55:00,35.3,29.3,29.91,NE,45,1.1,4.7,79,0.00,,,0.00,WUHU216HW,2013-03-16 20:55:00,
2013-03-16 17:00:00,35.3,29.3,29.91,ENE,68,2.2,4.7,79,0.00,,,0.00,WUHU216HW,2013-03-16 21:00:00,
2013-03-16 17:05:00,35.3,29.3,29.91,East,90,3.1,3.4,79,0.00,,,0.00,WUHU216HW,2013-03-16 21:05:00,
2013-03-16 17:10:00,35.1,29.5,29.92,SE,135,0.4,4.7,80,0.00,,,0.00,WUHU216HW,2013-03-16 21:10:00,
2013-03-16 17:15:00,35.5,29.9,29.92,NNE,23,4.7,4.7,80,0.00,,,0.00,WUHU216HW,2013-03-16 21:15:00,
2013-03-16 17:20:00,35.3,29.7,29.91,ESE,113,2.7,4.7,80,0.00,,,0.00,WUHU216HW,2013-03-16 21:20:00,
2013-03-16 17:25:00,35.3,29.7,29.90,NNE,23,2.0,4.3,80,0.00,,,0.00,WUHU216HW,2013-03-16 21:25:00,
2013-03-16 17:30:00,35.3,29.7,29.90,NE,45,3.4,5.6,80,0.00,,,0.00,WUHU216HW,2013-03-16 21:30:00,
2013-03-16 17:35:00,35.3,29.7,29.91,NNE,23,5.8,5.8,80,0.00,,,0.00,WUHU216HW,2013-03-16 21:35:00,
2013-03-16 17:40:00,35.3,29.7,29.91,NE,45,0.9,5.8,80,0.00,,,0.00,WUHU216HW,2013-03-16 21:40:00,
2013-03-16 17:45:00,35.3,29.7,29.91,ENE,68,2.2,4.5,80,0.00,,,0.00,WUHU216HW,2013-03-16 21:45:00,
2013-03-16 17:50:00,35.1,29.8,29.92,NE,45,1.6,5.8,81,0.00,,,0.00,WUHU216HW,2013-03-16 21:50:00,
2013-03-16 17:55:00,35.1,29.8,29.91,NE,45,2.0,5.8,81,0.00,,,0.00,WUHU216HW,2013-03-16 21:55:00,
2013-03-16 18:01:00,34.9,29.6,29.92,ENE,68,1.6,4.7,81,0.00,,,0.00,WUHU216HW,2013-03-16 22:01:00,
2013-03-16 18:06:00,35.1,29.8,29.92,ENE,68,3.6,3.6,81,0.00,,,0.00,WUHU216HW,2013-03-16 22:06:00,
2013-03-16 18:11:00,35.1,29.8,29.91,East,90,2.0,3.6,81,0.00,,,0.00,WUHU216HW,2013-03-16 22:11:00,
2013-03-16 18:16:00,35.1,29.8,29.92,NE,45,3.4,4.7,81,0.00,,,0.00,WUHU216HW,2013-03-16 22:16:00,
2013-03-16 18:21:00,34.9,29.6,29.92,NE,45,3.1,4.7,81,0.00,,,0.00,WUHU216HW,2013-03-16 22:21:00,
2013-03-16 18:26:00,35.1,29.8,29.92,ENE,68,4.0,6.0,81,0.00,,,0.00,WUHU216HW,2013-03-16 22:26:00,
2013-03-16 18:31:00,35.1,30.1,29.92,NE,45,2.2,6.0,82,0.00,,,0.00,WUHU216HW,2013-03-16 22:31:00,
2013-03-16 18:36:00,35.1,30.1,29.91,ENE,68,1.1,3.4,82,0.00,,,0.00,WUHU216HW,2013-03-16 22:36:00,
2013-03-16 18:41:00,35.1,30.1,29.92,ENE,68,2.0,3.4,82,0.00,,,0.00,WUHU216HW,2013-03-16 22:41:00,
2013-03-16 18:46:00,35.1,30.1,29.92,NE,45,1.8,4.7,82,0.00,,,0.00,WUHU216HW,2013-03-16 22:46:00,
2013-03-16 18:51:00,35.1,30.1,29.92,NNE,23,2.2,4.7,82,0.00,,,0.00,WUHU216HW,2013-03-16 22:51:00,
2013-03-16 18:56:00,35.1,30.1,29.91,East,90,0.7,2.9,82,0.00,,,0.00,WUHU216HW,2013-03-16 22:56:00,
2013-03-16 19:01:00,35.1,30.1,29.92,ESE,113,1.6,3.6,82,0.00,,,0.00,WUHU216HW,2013-03-16 23:01:00,
2013-03-16 19:07:00,35.1,30.4,29.92,NE,45,1.1,5.1,83,0.00,,,0.00,WUHU216HW,2013-03-16 23:07:00,
2013-03-16 19:12:00,35.1,30.1,29.92,East,90,2.5,5.1,82,0.00,,,0.00,WUHU216HW,2013-03-16 23:12:00,
2013-03-16 19:17:00,35.1,30.4,29.92,East,90,1.3,5.1,83,0.00,,,0.00,WUHU216HW,2013-03-16 23:17:00,
2013-03-16 19:22:00,35.1,30.4,29.92,NE,45,3.8,3.8,83,0.00,,,0.00,WUHU216HW,2013-03-16 23:22:00,
2013-03-16 19:27:00,35.1,30.4,29.92,NE,45,2.5,5.4,83,0.00,,,0.00,WUHU216HW,2013-03-16 23:27:00,
2013-03-16 19:32:00,35.3,30.6,29.92,NE,45,3.6,5.4,83,0.00,,,0.00,WUHU216HW,2013-03-16 23:32:00,
2013-03-16 19:37:00,35.3,30.6,29.92,ESE,113,2.5,4.7,83,0.00,,,0.00,WUHU216HW,2013-03-16 23:37:00,
2013-03-16 19:42:00,35.3,30.6,29.92,NNE,23,4.3,4.3,83,0.00,,,0.00,WUHU216HW,2013-03-16 23:42:00,
2013-03-16 19:47:00,35.3,30.6,29.93,NNE,23,0.9,4.3,83,0.00,,,0.00,WUHU216HW,2013-03-16 23:47:00,
2013-03-16 19:52:00,35.3,30.6,29.93,NE,45,0.4,2.5,83,0.00,,,0.00,WUHU216HW,2013-03-16 23:52:00,
2013-03-16 19:57:00,35.5,30.8,29.94,NNE,23,1.8,3.1,83,0.00,,,0.00,WUHU216HW,2013-03-16 23:57:00,
2013-03-16 20:02:00,35.5,30.8,29.94,North,0,1.3,3.1,83,0.00,,,0.00,WUHU216HW,2013-03-17 00:02:00,
2013-03-16 20:07:00,35.5,30.8,29.94,NNE,23,2.5,2.5,83,0.00,,,0.00,WUHU216HW,2013-03-17 00:07:00,
2013-03-16 20:12:00,35.5,30.8,29.95,NNE,23,0.2,2.5,83,0.00,,,0.00,WUHU216HW,2013-03-17 00:12:00,
2013-03-16 20:17:00,35.5,30.8,29.95,NNE,23,1.1,3.4,83,0.01,,,0.01,WUHU216HW,2013-03-17 00:17:00,
2013-03-16 20:22:00,35.5,30.8,29.95,NNE,23,1.1,3.4,83,0.01,,,0.01,WUHU216HW,2013-03-17 00:22:00,
2013-03-16 20:27:00,35.6,31.0,29.95,NNE,23,0.9,3.4,83,0.01,,,0.01,WUHU216HW,2013-03-17 00:27:00,
2013-03-16 20:32:00,35.6,31.0,29.96,NE,45,0.4,3.8,83,0.01,,,0.01,WUHU216HW,2013-03-17 00:32:00,
2013-03-16 20:37:00,35.6,31.0,29.96,NNE,23,1.6,3.8,83,0.01,,,0.01,WUHU216HW,2013-03-17 00:37:00,
2013-03-16 20:42:00,35.6,31.0,29.97,North,0,0.2,1.8,83,0.01,,,0.01,WUHU216HW,2013-03-17 00:42:00,
2013-03-16 20:47:00,35.5,30.8,29.97,NNW,338,0.9,1.1,83,0.01,,,0.01,WUHU216HW,2013-03-17 00:47:00,
2013-03-16 20:52:00,35.5,31.1,29.97,North,0,1.8,2.2,84,0.01,,,0.01,WUHU216HW,2013-03-17 00:52:00,
2013-03-16 20:57:00,35.3,30.9,29.98,North,0,1.8,2.5,84,0.01,,,0.01,WUHU216HW,2013-03-17 00:57:00,
2013-03-16 21:02:00,35.3,30.9,29.98,NNE,23,2.2,2.5,84,0.01,,,0.01,WUHU216HW,2013-03-17 01:02:00,
2013-03-16 21:08:00,35.1,30.7,29.98,North,0,1.3,2.2,84,0.01,,,0.01,WUHU216HW,2013-03-17 01:08:00,
2013-03-16 21:13:00,35.1,30.7,29.98,North,0,0.4,1.8,84,0.01,,,0.02,WUHU216HW,2013-03-17 01:13:00,
2013-03-16 21:18:00,35.1,30.7,29.99,NNW,338,0.4,1.6,84,0.01,,,0.02,WUHU216HW,2013-03-17 01:18:00,
2013-03-16 21:23:00,35.1,30.7,29.98,North,0,0.9,1.8,84,0.01,,,0.02,WUHU216HW,2013-03-17 01:23:00,
2013-03-16 21:28:00,35.1,31.0,29.99,NNW,338,0.2,2.2,85,0.01,,,0.02,WUHU216HW,2013-03-17 01:28:00,
2013-03-16 21:33:00,35.1,30.7,29.99,North,0,0.4,2.2,84,0.01,,,0.02,WUHU216HW,2013-03-17 01:33:00,
2013-03-16 21:38:00,35.1,30.7,29.99,NNW,338,0.7,1.6,84,0.01,,,0.02,WUHU216HW,2013-03-17 01:38:00,
2013-03-16 21:43:00,34.9,30.8,29.99,North,0,1.8,1.8,85,0.01,,,0.02,WUHU216HW,2013-03-17 01:43:00,
2013-03-16 21:48:00,34.9,30.5,30.00,NNW,338,1.1,1.8,84,0.01,,,0.02,WUHU216HW,2013-03-17 01:48:00,
2013-03-16 21:53:00,34.9,30.5,30.00,NNW,338,0.9,1.8,84,0.01,,,0.02,WUHU216HW,2013-03-17 01:53:00,
2013-03-16 21:58:00,34.9,30.5,30.00,NNW,338,1.1,1.3,84,0.01,,,0.02,WUHU216HW,2013-03-17 01:58:00,
2013-03-16 22:03:00,34.9,30.5,30.00,NW,315,1.8,1.8,84,0.01,,,0.02,WUHU216HW,2013-03-17 02:03:00,
2013-03-16 22:08:00,34.7,30.6,30.00,NW,315,1.3,1.8,85,0.00,,,0.02,WUHU216HW,2013-03-17 02:08:00,
2013-03-16 22:13:00,34.7,30.3,30.00,NW,315,0.4,1.6,84,0.00,,,0.02,WUHU216HW,2013-03-17 02:13:00,
2013-03-16 22:18:00,34.7,30.3,30.00,NNW,338,0.9,1.3,84,0.01,,,0.03,WUHU216HW,2013-03-17 02:18:00,
2013-03-16 22:23:00,34.7,30.3,30.01,NNW,338,0.7,1.3,84,0.01,,,0.03,WUHU216HW,2013-03-17 02:23:00,
2013-03-16 22:28:00,34.9,30.5,30.01,NNW,338,0.9,1.1,84,0.01,,,0.03,WUHU216HW,2013-03-17 02:28:00,
2013-03-16 22:33:00,34.9,30.5,30.01,North,0,0.7,1.6,84,0.01,,,0.03,WUHU216HW,2013-03-17 02:33:00,
2013-03-16 22:38:00,34.9,30.8,30.01,NNW,338,0.9,1.8,85,0.01,,,0.03,WUHU216HW,2013-03-17 02:38:00,
2013-03-16 22:43:00,34.9,30.8,30.01,NNW,338,1.6,1.8,85,0.01,,,0.03,WUHU216HW,2013-03-17 02:43:00,
2013-03-16 22:48:00,34.9,30.8,30.02,NW,315,0.4,2.0,85,0.01,,,0.03,WUHU216HW,2013-03-17 02:48:00,
2013-03-16 22:53:00,34.7,30.6,30.02,WNW,293,1.1,2.0,85,0.01,,,0.03,WUHU216HW,2013-03-17 02:53:00,
2013-03-16 22:58:00,34.7,30.6,30.03,NNW,338,0.7,1.8,85,0.01,,,0.03,WUHU216HW,2013-03-17 02:58:00,
2013-03-16 23:03:00,34.7,30.6,30.02,NNW,338,0.4,1.3,85,0.01,,,0.03,WUHU216HW,2013-03-17 03:03:00,
2013-03-16 23:08:00,34.7,30.6,30.02,NNW,338,0.2,1.1,85,0.01,,,0.03,WUHU216HW,2013-03-17 03:08:00,
2013-03-16 23:13:00,34.7,30.6,30.02,NNW,338,0.2,1.1,85,0.00,,,0.03,WUHU216HW,2013-03-17 03:13:00,
2013-03-16 23:18:00,34.9,30.8,30.02,North,0,0.7,1.1,85,0.00,,,0.03,WUHU216HW,2013-03-17 03:18:00,
2013-03-16 23:23:00,34.9,30.8,30.03,NNW,338,0.7,1.1,85,0.00,,,0.03,WUHU216HW,2013-03-17 03:23:00,
2013-03-16 23:28:00,34.9,30.8,30.04,NNW,338,1.6,1.6,85,0.00,,,0.03,WUHU216HW,2013-03-17 03:28:00,
2013-03-16 23:33:00,34.7,30.6,30.04,NW,315,0.4,1.8,85,0.00,,,0.03,WUHU216HW,2013-03-17 03:33:00,
2013-03-16 23:38:00,34.9,30.8,30.03,North,0,0.7,1.8,85,0.00,,,0.03,WUHU216HW,2013-03-17 03:38:00,
2013-03-16 23:43:00,34.9,30.8,30.04,NNW,338,1.1,1.6,85,0.00,,,0.03,WUHU216HW,2013-03-17 03:43:00,
2013-03-16 23:48:00,34.9,30.8,30.04,NNW,338,0.9,1.6,85,0.00,,,0.03,WUHU216HW,2013-03-17 03:48:00,
2013-03-16 23:53:00,34.9,30.8,30.04,NNW,338,0.9,1.6,85,0.00,,,0.03,WUHU216HW,2013-03-17 03:53:00,
2013-03-16 23:58:00,34.7,30.6,30.05,NNW,338,1.3,2.0,85,0.00,,,0.03,WUHU216HW,2013-03-17 03:58:00,